Time,TemperatureF,DewpointF,PressureIn,WindDirection,WindDirectionDegrees,WindSpeedMPH,WindSpeedGustMPH,Humidity,HourlyPrecipIn,Conditions,Clouds,dailyrainin,SoftwareType,DateUTC
2013-01-26 00:01:00,54.0,39.1,29.99,North,0,0.0,1.3,57,0.00,,,0.00,WUHU216HW,2013-01-26 07:01:00,
2013-01-26 00:06:00,54.0,39.1,29.99,North,0,0.0,0.4,57,0.00,,,0.00,WUHU216HW,2013-01-26 07:06:00,
2013-01-26 00:11:00,54.0,39.1,29.99,North,0,0.0,0.0,57,0.00,,,0.00,WUHU216HW,2013-01-26 07:11:00,
2013-01-26 00:16:00,53.8,38.9,29.99,NW,315,0.0,0.4,57,0.00,,,0.00,WUHU216HW,2013-01-26 07:16:00,
2013-01-26 00:21:00,54.0,39.1,29.99,NW,315,0.0,0.4,57,0.00,,,0.00,WUHU216HW,2013-01-26 07:21:00,
2013-01-26 00:26:00,53.8,38.9,29.99,NW,315,0.0,0.0,57,0.00,,,0.00,WUHU216HW,2013-01-26 07:26:00,
2013-01-26 00:31:00,54.0,39.1,29.98,North,0,0.0,0.0,57,0.00,,,0.00,WUHU216HW,2013-01-26 07:31:00,
2013-01-26 00:36:00,54.0,39.1,29.98,NE,45,1.3,1.3,57,0.00,,,0.00,WUHU216HW,2013-01-26 07:36:00,
2013-01-26 00:41:00,54.0,39.1,29.98,NE,45,1.6,1.6,57,0.00,,,0.00,WUHU216HW,2013-01-26 07:41:00,
2013-01-26 00:46:00,53.8,38.9,29.98,ENE,68,0.0,1.6,57,0.00,,,0.00,WUHU216HW,2013-01-26 07:46:00,
2013-01-26 00:51:00,53.8,39.3,29.98,ENE,68,0.0,0.2,58,0.00,,,0.00,WUHU216HW,2013-01-26 07:51:00,
2013-01-26 00:56:00,53.8,39.3,29.98,ENE,68,0.0,0.0,58,0.00,,,0.00,WUHU216HW,2013-01-26 07:56:00,
2013-01-26 01:01:00,53.8,39.3,29.98,ENE,68,0.0,0.0,58,0.00,,,0.00,WUHU216HW,2013-01-26 08:01:00,
2013-01-26 01:06:00,53.8,39.3,29.98,NNW,338,0.0,0.4,58,0.00,,,0.00,WUHU216HW,2013-01-26 08:06:00,
2013-01-26 01:11:00,53.8,39.3,29.98,North,0,0.2,0.4,58,0.00,,,0.00,WUHU216HW,2013-01-26 08:11:00,
2013-01-26 01:16:00,53.8,39.3,29.97,NNE,23,0.9,0.9,58,0.00,,,0.00,WUHU216HW,2013-01-26 08:16:00,
2013-01-26 01:21:00,54.0,39.5,29.97,NNE,23,0.0,1.1,58,0.00,,,0.00,WUHU216HW,2013-01-26 08:21:00,
2013-01-26 01:26:00,54.0,39.5,29.97,NW,315,0.4,1.1,58,0.00,,,0.00,WUHU216HW,2013-01-26 08:26:00,
2013-01-26 01:31:00,54.0,39.5,29.97,North,0,0.0,0.9,58,0.00,,,0.00,WUHU216HW,2013-01-26 08:31:00,
2013-01-26 01:36:00,54.0,39.1,29.97,North,0,0.0,0.7,57,0.00,,,0.00,WUHU216HW,2013-01-26 08:36:00,
2013-01-26 01:41:00,54.0,39.1,29.97,North,0,0.0,0.2,57,0.00,,,0.00,WUHU216HW,2013-01-26 08:41:00,
2013-01-26 01:46:00,54.0,39.1,29.97,NE,45,0.2,0.7,57,0.00,,,0.00,WUHU216HW,2013-01-26 08:46:00,
2013-01-26 01:51:00,53.8,38.9,29.97,ENE,68,0.4,0.7,57,0.00,,,0.00,WUHU216HW,2013-01-26 08:51:00,
2013-01-26 01:56:00,53.6,39.3,29.96,ENE,68,0.0,1.8,58,0.00,,,0.00,WUHU216HW,2013-01-26 08:56:00,
2013-01-26 02:01:00,53.6,39.3,29.97,ENE,68,0.0,1.8,58,0.00,,,0.00,WUHU216HW,2013-01-26 09:01:00,
2013-01-26 02:06:00,53.6,39.7,29.96,NW,315,0.9,0.9,59,0.00,,,0.00,WUHU216HW,2013-01-26 09:06:00,
2013-01-26 02:11:00,53.5,40.0,29.96,North,0,1.3,1.8,60,0.00,,,0.00,WUHU216HW,2013-01-26 09:11:00,
2013-01-26 02:16:00,53.3,40.1,29.96,North,0,1.3,2.5,61,0.00,,,0.00,WUHU216HW,2013-01-26 09:16:00,
2013-01-26 02:21:00,52.9,39.8,29.96,NNW,338,1.6,2.5,61,0.00,,,0.00,WUHU216HW,2013-01-26 09:21:00,
2013-01-26 02:26:00,52.7,40.1,29.96,North,0,0.9,2.7,62,0.00,,,0.00,WUHU216HW,2013-01-26 09:26:00,
2013-01-26 02:31:00,52.6,39.9,29.96,ENE,68,1.1,2.7,62,0.00,,,0.00,WUHU216HW,2013-01-26 09:31:00,
2013-01-26 02:36:00,52.7,40.1,29.96,ESE,113,1.6,2.2,62,0.00,,,0.00,WUHU216HW,2013-01-26 09:36:00,
2013-01-26 02:41:00,52.7,40.1,29.96,East,90,0.0,1.6,62,0.00,,,0.00,WUHU216HW,2013-01-26 09:41:00,
2013-01-26 02:46:00,52.7,40.4,29.96,North,0,0.7,0.7,63,0.00,,,0.00,WUHU216HW,2013-01-26 09:46:00,
2013-01-26 02:51:00,52.9,40.6,29.95,North,0,0.4,1.8,63,0.00,,,0.00,WUHU216HW,2013-01-26 09:51:00,
2013-01-26 02:56:00,52.6,40.7,29.95,NNE,23,1.1,3.8,64,0.00,,,0.00,WUHU216HW,2013-01-26 09:56:00,
2013-01-26 03:01:00,52.4,40.2,29.95,NNW,338,1.8,3.8,63,0.00,,,0.00,WUHU216HW,2013-01-26 10:01:00,
2013-01-26 03:06:00,52.4,40.5,29.95,NNE,23,2.5,2.5,64,0.00,,,0.00,WUHU216HW,2013-01-26 10:06:00,
2013-01-26 03:11:00,52.4,40.2,29.95,NNE,23,1.8,2.7,63,0.00,,,0.00,WUHU216HW,2013-01-26 10:11:00,
2013-01-26 03:16:00,52.6,40.3,29.95,ENE,68,0.9,2.7,63,0.00,,,0.00,WUHU216HW,2013-01-26 10:16:00,
2013-01-26 03:21:00,52.6,40.3,29.95,ENE,68,0.4,1.1,63,0.00,,,0.00,WUHU216HW,2013-01-26 10:21:00,
2013-01-26 03:26:00,52.7,40.4,29.95,North,0,0.0,1.1,63,0.00,,,0.00,WUHU216HW,2013-01-26 10:26:00,
2013-01-26 03:31:00,52.9,41.1,29.95,North,0,0.0,0.4,64,0.00,,,0.00,WUHU216HW,2013-01-26 10:31:00,
2013-01-26 03:36:00,52.9,41.1,29.95,NW,315,0.0,0.4,64,0.00,,,0.00,WUHU216HW,2013-01-26 10:36:00,
2013-01-26 03:41:00,52.9,41.1,29.95,WNW,293,0.9,1.6,64,0.00,,,0.00,WUHU216HW,2013-01-26 10:41:00,
2013-01-26 03:46:00,52.9,41.1,29.94,WNW,293,1.1,1.6,64,0.00,,,0.00,WUHU216HW,2013-01-26 10:46:00,
2013-01-26 03:51:00,52.9,41.1,29.94,NW,315,0.0,1.1,64,0.00,,,0.00,WUHU216HW,2013-01-26 10:51:00,
2013-01-26 03:56:00,52.9,41.1,29.94,NW,315,0.0,1.1,64,0.00,,,0.00,WUHU216HW,2013-01-26 10:56:00,
2013-01-26 04:01:00,52.9,41.1,29.94,NW,315,0.4,0.4,64,0.00,,,0.00,WUHU216HW,2013-01-26 11:01:00,
2013-01-26 04:06:00,52.9,41.1,29.94,WNW,293,0.0,1.6,64,0.00,,,0.00,WUHU216HW,2013-01-26 11:06:00,
2013-01-26 04:11:00,52.7,40.9,29.94,NW,315,0.0,1.6,64,0.00,,,0.00,WUHU216HW,2013-01-26 11:11:00,
2013-01-26 04:16:00,52.6,40.7,29.94,NNE,23,1.1,1.1,64,0.00,,,0.00,WUHU216HW,2013-01-26 11:16:00,
2013-01-26 04:21:00,52.6,40.7,29.94,NNW,338,0.0,1.1,64,0.00,,,0.00,WUHU216HW,2013-01-26 11:21:00,
2013-01-26 04:26:00,52.4,40.5,29.93,NNE,23,0.2,0.4,64,0.00,,,0.00,WUHU216HW,2013-01-26 11:26:00,
2013-01-26 04:31:00,52.2,40.3,29.93,ENE,68,0.4,0.9,64,0.00,,,0.00,WUHU216HW,2013-01-26 11:31:00,
2013-01-26 04:36:00,52.2,40.3,29.93,East,90,1.1,1.1,64,0.00,,,0.00,WUHU216HW,2013-01-26 11:36:00,
2013-01-26 04:41:00,52.2,40.3,29.93,East,90,0.2,1.1,64,0.00,,,0.00,WUHU216HW,2013-01-26 11:41:00,
2013-01-26 04:46:00,52.0,40.1,29.93,East,90,0.9,1.1,64,0.00,,,0.00,WUHU216HW,2013-01-26 11:46:00,
2013-01-26 04:51:00,51.8,40.0,29.93,ESE,113,0.0,0.9,64,0.00,,,0.00,WUHU216HW,2013-01-26 11:51:00,
2013-01-26 04:56:00,51.7,40.2,29.93,ESE,113,1.1,1.1,65,0.00,,,0.00,WUHU216HW,2013-01-26 11:56:00,
2013-01-26 05:01:00,51.7,39.9,29.92,East,90,1.1,1.6,64,0.00,,,0.00,WUHU216HW,2013-01-26 12:01:00,
2013-01-26 05:06:00,51.7,40.2,29.92,East,90,0.0,1.6,65,0.00,,,0.00,WUHU216HW,2013-01-26 12:06:00,
2013-01-26 05:11:00,51.7,40.2,29.92,East,90,0.0,0.9,65,0.00,,,0.00,WUHU216HW,2013-01-26 12:11:00,
2013-01-26 05:16:00,51.7,40.2,29.92,East,90,0.0,0.0,65,0.00,,,0.00,WUHU216HW,2013-01-26 12:16:00,
2013-01-26 05:21:00,51.5,40.1,29.92,East,90,0.0,0.0,65,0.00,,,0.00,WUHU216HW,2013-01-26 12:21:00,
2013-01-26 05:26:00,51.5,40.1,29.92,East,90,0.0,0.0,65,0.00,,,0.00,WUHU216HW,2013-01-26 12:26:00,
2013-01-26 05:32:00,51.5,40.5,29.92,East,90,0.0,0.0,66,0.00,,,0.00,WUHU216HW,2013-01-26 12:32:00,
2013-01-26 05:37:00,51.5,40.5,29.91,East,90,0.0,0.0,66,0.00,,,0.00,WUHU216HW,2013-01-26 12:37:00,
2013-01-26 05:42:00,51.5,40.5,29.91,East,90,0.0,0.0,66,0.00,,,0.00,WUHU216HW,2013-01-26 12:42:00,
2013-01-26 05:47:00,51.5,40.5,29.91,East,90,1.1,1.1,66,0.00,,,0.00,WUHU216HW,2013-01-26 12:47:00,
2013-01-26 05:52:00,51.3,40.3,29.91,NNE,23,0.0,1.1,66,0.00,,,0.00,WUHU216HW,2013-01-26 12:52:00,
2013-01-26 05:57:00,51.3,40.3,29.91,NNE,23,0.0,0.2,66,0.00,,,0.00,WUHU216HW,2013-01-26 12:57:00,
2013-01-26 06:02:00,51.3,40.3,29.91,NNE,23,0.0,0.2,66,0.00,,,0.00,WUHU216HW,2013-01-26 13:02:00,
2013-01-26 06:07:00,51.3,40.3,29.91,NNE,23,0.0,0.2,66,0.00,,,0.00,WUHU216HW,2013-01-26 13:07:00,
2013-01-26 06:13:00,51.1,40.2,29.91,NNE,23,0.0,0.0,66,0.00,,,0.00,WUHU216HW,2013-01-26 13:13:00,
2013-01-26 06:18:00,51.1,40.2,29.91,North,0,0.0,0.2,66,0.00,,,0.00,WUHU216HW,2013-01-26 13:18:00,
2013-01-26 06:23:00,51.1,40.2,29.91,North,0,0.0,0.2,66,0.00,,,0.00,WUHU216HW,2013-01-26 13:23:00,
2013-01-26 06:28:00,50.9,40.0,29.92,NW,315,0.7,0.9,66,0.00,,,0.00,WUHU216HW,2013-01-26 13:28:00,
2013-01-26 06:33:00,50.9,40.0,29.92,WNW,293,0.9,1.1,66,0.00,,,0.00,WUHU216HW,2013-01-26 13:33:00,
2013-01-26 06:38:00,50.6,39.6,29.92,West,270,2.5,3.4,66,0.00,,,0.00,WUHU216HW,2013-01-26 13:38:00,
2013-01-26 06:43:00,50.2,38.9,29.92,NW,315,0.4,3.4,65,0.00,,,0.00,WUHU216HW,2013-01-26 13:43:00,
2013-01-26 06:48:00,50.0,38.7,29.92,NNW,338,0.9,2.0,65,0.00,,,0.00,WUHU216HW,2013-01-26 13:48:00,
2013-01-26 06:53:00,49.9,38.5,29.92,NNE,23,1.6,1.6,65,0.00,,,0.00,WUHU216HW,2013-01-26 13:53:00,
2013-01-26 06:58:00,49.7,38.3,29.91,North,0,0.9,1.6,65,0.00,,,0.00,WUHU216HW,2013-01-26 13:58:00,
2013-01-26 07:03:00,49.7,38.3,29.92,NNW,338,0.4,1.3,65,0.00,,,0.00,WUHU216HW,2013-01-26 14:03:00,
2013-01-26 07:08:00,49.9,38.5,29.92,NNE,23,0.4,1.8,65,0.00,,,0.00,WUHU216HW,2013-01-26 14:08:00,
2013-01-26 07:13:00,49.9,38.5,29.92,North,0,0.9,1.8,65,0.00,,,0.00,WUHU216HW,2013-01-26 14:13:00,
2013-01-26 07:18:00,49.7,38.3,29.91,NNW,338,1.8,2.2,65,0.00,,,0.00,WUHU216HW,2013-01-26 14:18:00,
2013-01-26 07:23:00,49.5,38.2,29.91,North,0,1.1,2.5,65,0.00,,,0.00,WUHU216HW,2013-01-26 14:23:00,
2013-01-26 07:28:00,49.3,38.0,29.91,North,0,0.4,2.5,65,0.00,,,0.00,WUHU216HW,2013-01-26 14:28:00,
2013-01-26 07:33:00,49.3,38.0,29.91,NNW,338,0.2,1.1,65,0.00,,,0.00,WUHU216HW,2013-01-26 14:33:00,
2013-01-26 07:38:00,49.5,38.2,29.91,North,0,1.3,1.8,65,0.00,,,0.00,WUHU216HW,2013-01-26 14:38:00,
2013-01-26 07:43:00,49.5,38.2,29.91,NNW,338,0.4,1.8,65,0.00,,,0.00,WUHU216HW,2013-01-26 14:43:00,
2013-01-26 07:48:00,49.9,38.5,29.92,NW,315,0.4,1.6,65,0.00,,,0.00,WUHU216HW,2013-01-26 14:48:00,
2013-01-26 07:53:00,50.0,38.7,29.92,NW,315,0.4,0.9,65,0.00,,,0.00,WUHU216HW,2013-01-26 14:53:00,
2013-01-26 07:58:00,50.4,39.1,29.92,West,270,0.4,0.9,65,0.00,,,0.00,WUHU216HW,2013-01-26 14:58:00,
2013-01-26 08:03:00,50.8,39.4,29.92,NW,315,0.2,1.1,65,0.00,,,0.00,WUHU216HW,2013-01-26 15:03:00,
2013-01-26 08:08:00,50.9,39.5,29.93,NW,315,0.7,1.1,65,0.00,,,0.00,WUHU216HW,2013-01-26 15:08:00,
2013-01-26 08:13:00,51.1,39.7,29.93,West,270,1.8,1.8,65,0.00,,,0.00,WUHU216HW,2013-01-26 15:13:00,
2013-01-26 08:18:00,51.3,39.9,29.93,West,270,0.9,1.8,65,0.00,,,0.00,WUHU216HW,2013-01-26 15:18:00,
2013-01-26 08:23:00,51.5,40.1,29.94,WSW,248,1.3,1.8,65,0.00,,,0.00,WUHU216HW,2013-01-26 15:23:00,
2013-01-26 08:28:00,51.7,39.9,29.94,WSW,248,0.2,1.6,64,0.00,,,0.00,WUHU216HW,2013-01-26 15:28:00,
2013-01-26 08:33:00,51.8,40.0,29.94,WSW,248,0.9,1.6,64,0.00,,,0.00,WUHU216HW,2013-01-26 15:33:00,
2013-01-26 08:38:00,52.0,40.1,29.94,West,270,2.2,2.2,64,0.00,,,0.00,WUHU216HW,2013-01-26 15:38:00,
2013-01-26 08:43:00,52.0,40.1,29.94,West,270,0.9,2.5,64,0.00,,,0.00,WUHU216HW,2013-01-26 15:43:00,
2013-01-26 08:48:00,52.2,40.3,29.95,SW,225,0.2,2.5,64,0.00,,,0.00,WUHU216HW,2013-01-26 15:48:00,
2013-01-26 08:53:00,52.6,40.7,29.95,SW,225,0.0,1.1,64,0.00,,,0.00,WUHU216HW,2013-01-26 15:53:00,
2013-01-26 08:58:00,52.7,40.4,29.95,SSW,203,0.0,0.4,63,0.00,,,0.00,WUHU216HW,2013-01-26 15:58:00,
2013-01-26 09:03:00,52.9,40.6,29.95,WNW,293,0.0,0.7,63,0.00,,,0.00,WUHU216HW,2013-01-26 16:03:00,
2013-01-26 09:08:00,53.1,40.8,29.95,WNW,293,0.7,0.7,63,0.00,,,0.00,WUHU216HW,2013-01-26 16:08:00,
2013-01-26 09:13:00,53.6,41.0,29.95,WNW,293,0.7,1.3,62,0.00,,,0.00,WUHU216HW,2013-01-26 16:13:00,
2013-01-26 09:18:00,54.0,41.2,29.95,West,270,0.0,1.3,62,0.00,,,0.00,WUHU216HW,2013-01-26 16:18:00,
2013-01-26 09:23:00,54.4,41.6,29.95,West,270,0.0,0.4,62,0.00,,,0.00,WUHU216HW,2013-01-26 16:23:00,
2013-01-26 09:28:00,55.1,41.9,29.95,North,0,0.9,0.9,61,0.00,,,0.00,WUHU216HW,2013-01-26 16:28:00,
2013-01-26 09:33:00,55.4,41.8,29.95,NNW,338,0.0,0.9,60,0.00,,,0.00,WUHU216HW,2013-01-26 16:33:00,
2013-01-26 09:38:00,56.0,42.3,29.96,WSW,248,2.0,2.0,60,0.00,,,0.00,WUHU216HW,2013-01-26 16:38:00,
2013-01-26 09:43:00,56.2,42.0,29.96,SW,225,0.4,2.0,59,0.00,,,0.00,WUHU216HW,2013-01-26 16:43:00,
2013-01-26 09:48:00,56.5,42.4,29.97,SSW,203,1.8,1.8,59,0.00,,,0.00,WUHU216HW,2013-01-26 16:48:00,
2013-01-26 09:53:00,56.9,42.3,29.96,SW,225,0.0,1.8,58,0.00,,,0.00,WUHU216HW,2013-01-26 16:53:00,
2013-01-26 09:58:00,56.9,42.3,29.96,SE,135,0.7,0.7,58,0.00,,,0.00,WUHU216HW,2013-01-26 16:58:00,
2013-01-26 10:03:00,57.4,42.8,29.96,WSW,248,0.0,0.7,58,0.00,,,0.00,WUHU216HW,2013-01-26 17:03:00,
2013-01-26 10:08:00,58.3,43.6,29.96,SSW,203,0.7,0.9,58,0.00,,,0.00,WUHU216HW,2013-01-26 17:08:00,
2013-01-26 10:13:00,59.0,43.7,29.96,SSE,158,2.7,2.7,57,0.00,,,0.00,WUHU216HW,2013-01-26 17:13:00,
2013-01-26 10:18:00,59.6,43.8,29.95,SE,135,0.4,3.8,56,0.00,,,0.00,WUHU216HW,2013-01-26 17:18:00,
2013-01-26 10:23:00,59.6,43.8,29.95,ESE,113,1.8,3.8,56,0.00,,,0.00,WUHU216HW,2013-01-26 17:23:00,
2013-01-26 10:28:00,59.9,44.2,29.95,ESE,113,5.4,5.4,56,0.00,,,0.00,WUHU216HW,2013-01-26 17:28:00,
2013-01-26 10:33:00,60.1,44.4,29.94,SE,135,4.0,7.6,56,0.00,,,0.00,WUHU216HW,2013-01-26 17:33:00,
2013-01-26 10:38:00,60.1,43.8,29.93,SE,135,8.5,10.5,55,0.00,,,0.00,WUHU216HW,2013-01-26 17:38:00,
2013-01-26 10:43:00,60.5,44.2,29.96,WSW,248,6.3,10.5,55,0.00,,,0.00,WUHU216HW,2013-01-26 17:43:00,
2013-01-26 10:48:00,61.2,44.4,29.96,WNW,293,7.2,7.6,54,0.00,,,0.00,WUHU216HW,2013-01-26 17:48:00,
2013-01-26 10:53:00,61.6,44.2,29.96,WNW,293,3.6,7.6,53,0.00,,,0.00,WUHU216HW,2013-01-26 17:53:00,
2013-01-26 10:58:00,61.7,44.4,29.96,SE,135,2.5,4.7,53,0.00,,,0.00,WUHU216HW,2013-01-26 17:58:00,
2013-01-26 11:03:00,62.1,44.7,29.96,South,180,2.5,3.8,53,0.00,,,0.00,WUHU216HW,2013-01-26 18:03:00,
2013-01-26 11:08:00,62.1,44.2,29.96,SE,135,2.7,3.4,52,0.00,,,0.00,WUHU216HW,2013-01-26 18:08:00,
2013-01-26 11:13:00,62.1,43.7,29.96,SSW,203,2.7,5.1,51,0.00,,,0.00,WUHU216HW,2013-01-26 18:13:00,
2013-01-26 11:18:00,61.7,43.9,29.96,SE,135,3.8,5.1,52,0.00,,,0.00,WUHU216HW,2013-01-26 18:18:00,
2013-01-26 11:23:00,61.6,43.7,29.96,South,180,2.7,4.7,52,0.00,,,0.00,WUHU216HW,2013-01-26 18:23:00,
2013-01-26 11:28:00,61.4,43.6,29.95,SE,135,1.6,3.6,52,0.00,,,0.00,WUHU216HW,2013-01-26 18:28:00,
2013-01-26 11:33:00,61.6,43.7,29.94,SE,135,3.6,4.7,52,0.00,,,0.00,WUHU216HW,2013-01-26 18:33:00,
2013-01-26 11:38:00,61.6,43.7,29.95,South,180,3.6,4.7,52,0.00,,,0.00,WUHU216HW,2013-01-26 18:38:00,
2013-01-26 11:43:00,61.4,43.6,29.95,SE,135,4.9,4.9,52,0.00,,,0.00,WUHU216HW,2013-01-26 18:43:00,
2013-01-26 11:48:00,61.2,43.4,29.93,SE,135,3.4,5.8,52,0.00,,,0.00,WUHU216HW,2013-01-26 18:48:00,
2013-01-26 11:53:00,61.0,43.3,29.93,SE,135,5.4,5.8,52,0.00,,,0.00,WUHU216HW,2013-01-26 18:53:00,
2013-01-26 11:58:00,61.2,43.4,29.92,ESE,113,2.5,5.4,52,0.00,,,0.00,WUHU216HW,2013-01-26 18:58:00,
2013-01-26 12:03:00,61.6,43.7,29.91,SE,135,0.4,4.0,52,0.00,,,0.00,WUHU216HW,2013-01-26 19:03:00,
2013-01-26 12:08:00,61.9,44.1,29.91,NW,315,0.0,2.0,52,0.00,,,0.00,WUHU216HW,2013-01-26 19:08:00,
2013-01-26 12:13:00,62.5,44.1,29.91,WNW,293,0.4,0.9,51,0.00,,,0.00,WUHU216HW,2013-01-26 19:13:00,
2013-01-26 12:18:00,63.0,44.6,29.91,WSW,248,0.7,0.9,51,0.00,,,0.00,WUHU216HW,2013-01-26 19:18:00,
2013-01-26 12:23:00,63.7,44.7,29.90,West,270,2.0,3.1,50,0.00,,,0.00,WUHU216HW,2013-01-26 19:23:00,
2013-01-26 12:28:00,64.4,44.8,29.90,WSW,248,0.7,3.1,49,0.00,,,0.00,WUHU216HW,2013-01-26 19:28:00,
2013-01-26 12:33:00,64.4,44.8,29.90,SSW,203,0.4,1.1,49,0.00,,,0.00,WUHU216HW,2013-01-26 19:33:00,
2013-01-26 12:38:00,64.1,43.9,29.90,SE,135,2.5,3.1,48,0.00,,,0.00,WUHU216HW,2013-01-26 19:38:00,
2013-01-26 12:43:00,63.9,43.8,29.90,South,180,2.9,4.7,48,0.00,,,0.00,WUHU216HW,2013-01-26 19:43:00,
2013-01-26 12:48:00,63.7,43.6,29.90,SSE,158,4.0,6.9,48,0.00,,,0.00,WUHU216HW,2013-01-26 19:48:00,
2013-01-26 12:53:00,63.5,43.4,29.89,SE,135,6.3,6.9,48,0.00,,,0.00,WUHU216HW,2013-01-26 19:53:00,
2013-01-26 12:58:00,63.5,43.4,29.89,SSE,158,8.3,8.5,48,0.00,,,0.00,WUHU216HW,2013-01-26 19:58:00,
2013-01-26 13:03:00,63.7,43.6,29.88,ESE,113,6.0,8.5,48,0.00,,,0.00,WUHU216HW,2013-01-26 20:03:00,
2013-01-26 13:08:00,63.7,43.0,29.88,SE,135,2.0,6.5,47,0.00,,,0.00,WUHU216HW,2013-01-26 20:08:00,
2013-01-26 13:13:00,63.9,43.8,29.88,ESE,113,4.7,6.9,48,0.00,,,0.00,WUHU216HW,2013-01-26 20:13:00,
2013-01-26 13:18:00,64.4,43.7,29.87,ESE,113,4.7,6.9,47,0.00,,,0.00,WUHU216HW,2013-01-26 20:18:00,
2013-01-26 13:23:00,64.8,43.4,29.87,ESE,113,4.0,5.6,46,0.00,,,0.00,WUHU216HW,2013-01-26 20:23:00,
2013-01-26 13:28:00,65.2,43.2,29.87,ESE,113,6.3,6.9,45,0.00,,,0.00,WUHU216HW,2013-01-26 20:28:00,
2013-01-26 13:33:00,65.3,43.4,29.86,SE,135,3.1,6.9,45,0.00,,,0.00,WUHU216HW,2013-01-26 20:33:00,
2013-01-26 13:38:00,65.9,43.3,29.86,SSE,158,1.8,4.9,44,0.00,,,0.00,WUHU216HW,2013-01-26 20:38:00,
2013-01-26 13:43:00,66.2,43.0,29.86,SSE,158,3.6,6.9,43,0.00,,,0.00,WUHU216HW,2013-01-26 20:43:00,
2013-01-26 13:48:00,66.2,43.6,29.85,SSW,203,1.1,6.9,44,0.00,,,0.00,WUHU216HW,2013-01-26 20:48:00,
2013-01-26 13:53:00,66.2,43.6,29.85,SW,225,0.7,4.7,44,0.00,,,0.00,WUHU216HW,2013-01-26 20:53:00,
2013-01-26 13:58:00,66.4,43.2,29.85,SW,225,2.9,4.7,43,0.00,,,0.00,WUHU216HW,2013-01-26 20:58:00,
2013-01-26 14:03:00,66.6,43.3,29.85,WSW,248,3.4,3.4,43,0.00,,,0.00,WUHU216HW,2013-01-26 21:03:00,
2013-01-26 14:08:00,66.6,43.3,29.85,SW,225,1.8,4.7,43,0.00,,,0.00,WUHU216HW,2013-01-26 21:08:00,
2013-01-26 14:13:00,66.4,43.2,29.85,SW,225,4.5,5.1,43,0.00,,,0.00,WUHU216HW,2013-01-26 21:13:00,
2013-01-26 14:18:00,66.2,44.2,29.85,SSW,203,5.4,5.4,45,0.00,,,0.00,WUHU216HW,2013-01-26 21:18:00,
2013-01-26 14:23:00,66.2,45.4,29.85,WSW,248,3.4,5.4,47,0.00,,,0.00,WUHU216HW,2013-01-26 21:23:00,
2013-01-26 14:28:00,66.1,45.2,29.85,WSW,248,7.2,7.2,47,0.00,,,0.00,WUHU216HW,2013-01-26 21:28:00,
2013-01-26 14:33:00,66.1,44.7,29.85,SSW,203,3.4,7.2,46,0.00,,,0.00,WUHU216HW,2013-01-26 21:33:00,
2013-01-26 14:38:00,66.2,44.8,29.85,WSW,248,3.1,4.0,46,0.00,,,0.00,WUHU216HW,2013-01-26 21:38:00,
2013-01-26 14:43:00,66.2,44.2,29.85,WSW,248,2.5,5.4,45,0.00,,,0.00,WUHU216HW,2013-01-26 21:43:00,
2013-01-26 14:48:00,66.6,44.6,29.85,WSW,248,2.5,5.4,45,0.00,,,0.00,WUHU216HW,2013-01-26 21:48:00,
2013-01-26 14:54:00,67.0,44.3,29.85,SW,225,3.6,5.6,44,0.00,,,0.00,WUHU216HW,2013-01-26 21:54:00,
2013-01-26 14:59:00,67.0,44.3,29.85,SW,225,5.4,6.7,44,0.00,,,0.00,WUHU216HW,2013-01-26 21:59:00,
2013-01-26 15:04:00,67.1,44.4,29.85,WSW,248,5.4,6.7,44,0.00,,,0.00,WUHU216HW,2013-01-26 22:04:00,
2013-01-26 15:09:00,67.3,44.6,29.85,WSW,248,1.8,6.0,44,0.00,,,0.00,WUHU216HW,2013-01-26 22:09:00,
2013-01-26 15:14:00,67.3,44.0,29.85,SSW,203,1.6,5.4,43,0.00,,,0.00,WUHU216HW,2013-01-26 22:14:00,
2013-01-26 15:19:00,67.3,44.6,29.85,WSW,248,2.0,4.7,44,0.00,,,0.00,WUHU216HW,2013-01-26 22:19:00,
2013-01-26 15:24:00,67.3,44.6,29.85,SW,225,3.6,4.7,44,0.00,,,0.00,WUHU216HW,2013-01-26 22:24:00,
2013-01-26 15:29:00,67.5,44.7,29.85,SSW,203,2.5,4.5,44,0.00,,,0.00,WUHU216HW,2013-01-26 22:29:00,
2013-01-26 15:34:00,67.3,44.0,29.85,SW,225,2.5,4.0,43,0.00,,,0.00,WUHU216HW,2013-01-26 22:34:00,
2013-01-26 15:39:00,67.1,44.4,29.85,SSW,203,1.8,4.0,44,0.00,,,0.00,WUHU216HW,2013-01-26 22:39:00,
2013-01-26 15:44:00,67.0,44.3,29.85,SSW,203,2.5,3.4,44,0.00,,,0.00,WUHU216HW,2013-01-26 22:44:00,
2013-01-26 15:49:00,67.1,44.4,29.85,SSW,203,1.6,3.4,44,0.00,,,0.00,WUHU216HW,2013-01-26 22:49:00,
2013-01-26 15:54:00,67.1,44.4,29.85,SSE,158,2.7,3.4,44,0.00,,,0.00,WUHU216HW,2013-01-26 22:54:00,
2013-01-26 15:59:00,67.0,44.3,29.85,SSW,203,3.4,3.4,44,0.00,,,0.00,WUHU216HW,2013-01-26 22:59:00,
2013-01-26 16:04:00,67.0,43.7,29.85,ESE,113,1.3,5.4,43,0.00,,,0.00,WUHU216HW,2013-01-26 23:04:00,
2013-01-26 16:09:00,67.0,44.3,29.84,SSE,158,1.8,5.4,44,0.00,,,0.00,WUHU216HW,2013-01-26 23:09:00,
2013-01-26 16:14:00,66.8,44.1,29.84,SE,135,3.4,3.8,44,0.00,,,0.00,WUHU216HW,2013-01-26 23:14:00,
2013-01-26 16:19:00,66.6,43.9,29.84,SSW,203,1.8,3.8,44,0.00,,,0.00,WUHU216HW,2013-01-26 23:19:00,
2013-01-26 16:24:00,66.6,43.9,29.84,SE,135,2.7,3.6,44,0.00,,,0.00,WUHU216HW,2013-01-26 23:24:00,
2013-01-26 16:29:00,66.2,43.6,29.84,SW,225,1.3,3.6,44,0.00,,,0.00,WUHU216HW,2013-01-26 23:29:00,
2013-01-26 16:34:00,66.1,43.5,29.84,SSW,203,2.5,6.3,44,0.00,,,0.00,WUHU216HW,2013-01-26 23:34:00,
2013-01-26 16:39:00,65.9,43.3,29.84,SSW,203,3.1,6.3,44,0.00,,,0.00,WUHU216HW,2013-01-26 23:39:00,
2013-01-26 16:44:00,65.5,43.5,29.84,SSW,203,2.9,5.1,45,0.00,,,0.00,WUHU216HW,2013-01-26 23:44:00,
2013-01-26 16:49:00,65.5,43.5,29.84,SE,135,3.6,5.1,45,0.00,,,0.00,WUHU216HW,2013-01-26 23:49:00,
2013-01-26 16:54:00,65.3,43.4,29.84,West,270,1.3,3.6,45,0.00,,,0.00,WUHU216HW,2013-01-26 23:54:00,
2013-01-26 16:59:00,65.3,43.4,29.84,WSW,248,1.8,2.5,45,0.00,,,0.00,WUHU216HW,2013-01-26 23:59:00,
2013-01-26 17:04:00,65.3,43.4,29.84,WSW,248,0.9,1.8,45,0.00,,,0.00,WUHU216HW,2013-01-27 00:04:00,
2013-01-26 17:09:00,65.2,43.2,29.84,WSW,248,0.4,1.8,45,0.00,,,0.00,WUHU216HW,2013-01-27 00:09:00,
2013-01-26 17:14:00,64.8,43.4,29.84,West,270,2.5,2.5,46,0.00,,,0.00,WUHU216HW,2013-01-27 00:14:00,
2013-01-26 17:19:00,64.4,43.0,29.84,West,270,2.9,3.1,46,0.00,,,0.00,WUHU216HW,2013-01-27 00:19:00,
2013-01-26 17:24:00,64.4,43.0,29.85,WSW,248,1.6,4.7,46,0.00,,,0.00,WUHU216HW,2013-01-27 00:24:00,
2013-01-26 17:29:00,64.3,42.9,29.85,WSW,248,2.5,4.7,46,0.00,,,0.00,WUHU216HW,2013-01-27 00:29:00,
2013-01-26 17:34:00,64.3,43.5,29.85,West,270,2.5,3.1,47,0.00,,,0.00,WUHU216HW,2013-01-27 00:34:00,
2013-01-26 17:39:00,64.1,43.3,29.86,West,270,1.8,3.1,47,0.00,,,0.00,WUHU216HW,2013-01-27 00:39:00,
2013-01-26 17:44:00,64.1,43.3,29.86,WSW,248,1.6,2.5,47,0.00,,,0.00,WUHU216HW,2013-01-27 00:44:00,
2013-01-26 17:49:00,63.9,43.1,29.85,WSW,248,0.2,2.0,47,0.00,,,0.00,WUHU216HW,2013-01-27 00:49:00,
2013-01-26 17:54:00,63.7,43.0,29.86,WSW,248,1.3,1.8,47,0.00,,,0.00,WUHU216HW,2013-01-27 00:54:00,
2013-01-26 17:59:00,63.7,43.0,29.86,WSW,248,0.0,1.8,47,0.00,,,0.00,WUHU216HW,2013-01-27 00:59:00,
2013-01-26 18:04:00,63.5,43.4,29.86,WSW,248,0.0,1.3,48,0.00,,,0.00,WUHU216HW,2013-01-27 01:04:00,
2013-01-26 18:09:00,63.4,43.2,29.86,SW,225,0.2,0.4,48,0.00,,,0.00,WUHU216HW,2013-01-27 01:09:00,
2013-01-26 18:14:00,63.2,43.1,29.86,WSW,248,1.8,1.8,48,0.00,,,0.00,WUHU216HW,2013-01-27 01:14:00,
2013-01-26 18:19:00,63.0,43.5,29.86,WSW,248,0.7,1.8,49,0.00,,,0.00,WUHU216HW,2013-01-27 01:19:00,
2013-01-26 18:24:00,63.0,43.5,29.86,WSW,248,1.8,2.0,49,0.00,,,0.00,WUHU216HW,2013-01-27 01:24:00,
2013-01-26 18:29:00,62.8,43.3,29.87,WSW,248,1.3,2.5,49,0.00,,,0.00,WUHU216HW,2013-01-27 01:29:00,
2013-01-26 18:34:00,62.8,43.9,29.87,WSW,248,2.2,3.4,50,0.00,,,0.00,WUHU216HW,2013-01-27 01:34:00,
2013-01-26 18:39:00,62.8,44.4,29.87,WSW,248,1.8,3.4,51,0.00,,,0.00,WUHU216HW,2013-01-27 01:39:00,
2013-01-26 18:44:00,62.8,44.4,29.87,WSW,248,2.5,3.4,51,0.00,,,0.00,WUHU216HW,2013-01-27 01:44:00,
2013-01-26 18:49:00,62.6,44.2,29.87,West,270,2.5,3.4,51,0.00,,,0.00,WUHU216HW,2013-01-27 01:49:00,
2013-01-26 18:54:00,62.6,44.2,29.87,West,270,2.2,3.1,51,0.00,,,0.00,WUHU216HW,2013-01-27 01:54:00,
2013-01-26 18:59:00,62.5,44.1,29.87,West,270,2.0,2.5,51,0.00,,,0.00,WUHU216HW,2013-01-27 01:59:00,
2013-01-26 19:04:00,62.3,44.4,29.87,West,270,1.3,2.5,52,0.00,,,0.00,WUHU216HW,2013-01-27 02:04:00,
2013-01-26 19:09:00,61.9,44.1,29.88,SW,225,0.7,2.0,52,0.00,,,0.00,WUHU216HW,2013-01-27 02:09:00,
2013-01-26 19:14:00,61.6,44.2,29.87,SSW,203,0.9,1.6,53,0.00,,,0.00,WUHU216HW,2013-01-27 02:14:00,
2013-01-26 19:19:00,61.4,44.1,29.88,West,270,2.0,2.0,53,0.00,,,0.00,WUHU216HW,2013-01-27 02:19:00,
2013-01-26 19:24:00,61.2,44.4,29.88,West,270,0.9,2.0,54,0.00,,,0.00,WUHU216HW,2013-01-27 02:24:00,
2013-01-26 19:29:00,61.2,44.4,29.88,West,270,0.4,2.0,54,0.00,,,0.00,WUHU216HW,2013-01-27 02:29:00,
2013-01-26 19:34:00,60.8,44.1,29.88,SSW,203,0.7,1.6,54,0.00,,,0.00,WUHU216HW,2013-01-27 02:34:00,
2013-01-26 19:39:00,60.7,44.4,29.88,West,270,0.7,1.3,55,0.00,,,0.00,WUHU216HW,2013-01-27 02:39:00,
2013-01-26 19:44:00,60.5,44.2,29.88,WSW,248,0.7,1.3,55,0.00,,,0.00,WUHU216HW,2013-01-27 02:44:00,
2013-01-26 19:49:00,60.1,43.8,29.87,WSW,248,0.7,1.3,55,0.00,,,0.00,WUHU216HW,2013-01-27 02:49:00,
2013-01-26 19:54:00,60.1,44.4,29.87,SE,135,1.1,1.3,56,0.00,,,0.00,WUHU216HW,2013-01-27 02:54:00,
2013-01-26 19:59:00,59.9,44.2,29.88,SE,135,1.1,1.3,56,0.00,,,0.00,WUHU216HW,2013-01-27 02:59:00,
2013-01-26 20:04:00,59.9,44.2,29.88,SE,135,0.4,1.3,56,0.00,,,0.00,WUHU216HW,2013-01-27 03:04:00,
2013-01-26 20:09:00,59.8,44.5,29.88,SW,225,0.7,1.1,57,0.00,,,0.00,WUHU216HW,2013-01-27 03:09:00,
2013-01-26 20:14:00,59.6,44.3,29.88,WSW,248,2.7,2.7,57,0.00,,,0.00,WUHU216HW,2013-01-27 03:14:00,
2013-01-26 20:19:00,59.4,44.7,29.88,WSW,248,5.8,5.8,58,0.00,,,0.00,WUHU216HW,2013-01-27 03:19:00,
2013-01-26 20:24:00,59.6,45.3,29.88,SW,225,2.2,5.8,59,0.00,,,0.00,WUHU216HW,2013-01-27 03:24:00,
2013-01-26 20:29:00,59.8,45.5,29.88,WSW,248,3.4,3.6,59,0.00,,,0.00,WUHU216HW,2013-01-27 03:29:00,
2013-01-26 20:34:00,59.8,45.5,29.88,WSW,248,3.4,3.4,59,0.00,,,0.00,WUHU216HW,2013-01-27 03:34:00,
2013-01-26 20:39:00,60.1,47.1,29.88,West,270,8.5,8.5,62,0.00,,,0.00,WUHU216HW,2013-01-27 03:39:00,
2013-01-26 20:44:00,60.5,47.9,29.88,West,270,6.9,8.5,63,0.00,,,0.00,WUHU216HW,2013-01-27 03:44:00,
2013-01-26 20:49:00,60.7,48.1,29.88,WSW,248,4.9,8.5,63,0.00,,,0.00,WUHU216HW,2013-01-27 03:49:00,
2013-01-26 20:54:00,60.5,47.4,29.89,West,270,4.0,8.5,62,0.00,,,0.00,WUHU216HW,2013-01-27 03:54:00,
2013-01-26 20:59:00,60.3,47.3,29.88,West,270,4.0,7.4,62,0.00,,,0.00,WUHU216HW,2013-01-27 03:59:00,
2013-01-26 21:04:00,60.1,47.5,29.88,WSW,248,5.8,6.3,63,0.00,,,0.00,WUHU216HW,2013-01-27 04:04:00,
2013-01-26 21:09:00,59.9,46.9,29.88,WSW,248,3.6,6.0,62,0.00,,,0.00,WUHU216HW,2013-01-27 04:09:00,
2013-01-26 21:14:00,59.8,46.7,29.89,SW,225,4.7,5.4,62,0.00,,,0.00,WUHU216HW,2013-01-27 04:14:00,
2013-01-26 21:19:00,59.8,46.7,29.89,West,270,4.3,5.4,62,0.00,,,0.00,WUHU216HW,2013-01-27 04:19:00,
2013-01-26 21:24:00,59.6,46.5,29.89,WSW,248,4.0,5.8,62,0.00,,,0.00,WUHU216HW,2013-01-27 04:24:00,
2013-01-26 21:29:00,59.4,46.4,29.89,West,270,4.0,6.0,62,0.00,,,0.00,WUHU216HW,2013-01-27 04:29:00,
2013-01-26 21:34:00,59.4,46.4,29.89,West,270,3.4,6.0,62,0.00,,,0.00,WUHU216HW,2013-01-27 04:34:00,
2013-01-26 21:39:00,59.6,46.5,29.89,WSW,248,7.6,7.6,62,0.00,,,0.00,WUHU216HW,2013-01-27 04:39:00,
2013-01-26 21:45:00,59.6,46.2,29.89,WSW,248,4.0,7.6,61,0.00,,,0.00,WUHU216HW,2013-01-27 04:45:00,
2013-01-26 21:50:00,59.6,46.2,29.89,WSW,248,4.9,5.4,61,0.00,,,0.00,WUHU216HW,2013-01-27 04:50:00,
2013-01-26 21:55:00,59.6,46.2,29.89,West,270,4.3,5.1,61,0.00,,,0.00,WUHU216HW,2013-01-27 04:55:00,
2013-01-26 22:00:00,59.4,45.5,29.89,WSW,248,3.4,4.7,60,0.00,,,0.00,WUHU216HW,2013-01-27 05:00:00,
2013-01-26 22:02:00,59.4,45.5,29.89,WNW,293,5.4,5.4,60,0.00,,,0.00,WUHU216HW,2013-01-27 05:02:00,
2013-01-26 22:03:00,59.4,45.5,29.89,WSW,248,3.4,5.4,60,0.00,,,0.00,WUHU216HW,2013-01-27 05:03:00,
2013-01-26 22:08:00,59.4,45.5,29.89,SW,225,3.6,5.4,60,0.00,,,0.00,WUHU216HW,2013-01-27 05:08:00,
2013-01-26 22:13:00,59.4,45.5,29.89,WSW,248,2.9,4.0,60,0.00,,,0.00,WUHU216HW,2013-01-27 05:13:00,
2013-01-26 22:18:00,59.4,45.5,29.89,West,270,3.4,4.0,60,0.00,,,0.00,WUHU216HW,2013-01-27 05:18:00,
2013-01-26 22:23:00,59.2,45.4,29.89,WSW,248,2.5,6.3,60,0.00,,,0.00,WUHU216HW,2013-01-27 05:23:00,
2013-01-26 22:28:00,59.2,45.4,29.89,West,270,3.8,6.3,60,0.00,,,0.00,WUHU216HW,2013-01-27 05:28:00,
2013-01-26 22:33:00,59.2,45.4,29.89,West,270,3.6,4.7,60,0.00,,,0.00,WUHU216HW,2013-01-27 05:33:00,
2013-01-26 22:38:00,59.2,45.4,29.89,WSW,248,4.5,4.7,60,0.00,,,0.00,WUHU216HW,2013-01-27 05:38:00,
2013-01-26 22:43:00,59.2,45.4,29.89,WSW,248,6.0,6.3,60,0.00,,,0.00,WUHU216HW,2013-01-27 05:43:00,
2013-01-26 22:48:00,59.2,45.4,29.89,WSW,248,3.4,6.3,60,0.00,,,0.00,WUHU216HW,2013-01-27 05:48:00,
2013-01-26 22:53:00,59.2,45.4,29.89,West,270,1.8,4.3,60,0.00,,,0.00,WUHU216HW,2013-01-27 05:53:00,
2013-01-26 22:58:00,59.2,45.4,29.89,West,270,1.1,4.0,60,0.00,,,0.00,WUHU216HW,2013-01-27 05:58:00,
2013-01-26 23:03:00,59.0,45.2,29.89,WSW,248,1.3,3.4,60,0.00,,,0.00,WUHU216HW,2013-01-27 06:03:00,
2013-01-26 23:08:00,59.0,45.2,29.89,SW,225,1.3,2.0,60,0.00,,,0.00,WUHU216HW,2013-01-27 06:08:00,
2013-01-26 23:13:00,58.9,44.6,29.88,WSW,248,1.8,1.8,59,0.00,,,0.00,WUHU216HW,2013-01-27 06:13:00,
2013-01-26 23:18:00,58.9,44.6,29.89,SW,225,2.7,2.7,59,0.00,,,0.00,WUHU216HW,2013-01-27 06:18:00,
2013-01-26 23:23:00,58.7,44.4,29.89,WSW,248,2.5,3.1,59,0.00,,,0.00,WUHU216HW,2013-01-27 06:23:00,
2013-01-26 23:28:00,58.5,44.2,29.89,WSW,248,2.5,3.1,59,0.00,,,0.00,WUHU216HW,2013-01-27 06:28:00,
2013-01-26 23:33:00,58.5,44.2,29.89,WSW,248,3.1,3.1,59,0.00,,,0.00,WUHU216HW,2013-01-27 06:33:00,
2013-01-26 23:38:00,58.3,44.6,29.88,WSW,248,3.4,3.8,60,0.00,,,0.00,WUHU216HW,2013-01-27 06:38:00,
2013-01-26 23:43:00,58.3,44.6,29.89,SW,225,3.6,3.8,60,0.00,,,0.00,WUHU216HW,2013-01-27 06:43:00,
2013-01-26 23:48:00,58.3,44.6,29.89,WSW,248,3.4,3.8,60,0.00,,,0.00,WUHU216HW,2013-01-27 06:48:00,
2013-01-26 23:53:00,58.3,44.6,29.89,SW,225,3.4,4.0,60,0.00,,,0.00,WUHU216HW,2013-01-27 06:53:00,
2013-01-26 23:58:00,58.3,44.6,29.89,WSW,248,2.7,4.5,60,0.00,,,0.00,WUHU216HW,2013-01-27 06:58:00,